RH
33 20 29 66 67 88 82 92 95 80 44 25 15 24 38 27 20 15 12 10 10 10 10 10 10 9 9 9 10 11 13 14 14 15 16 18 18 18 18 18 18 18 17 17
50 23 32 50 63 98 90 85 51 52 31 17 18 32 25 17 13 12 11 11 11 11 11 10 10 10 11 13 14 15 16 16 18 20 21 21 21 20 20 20 21 22 22 22
42 53 58 83 86 63 42 38 31 24 18 17 24 23 15 12 12 11 12 11 11 10 10 11 13 16 17 17 18 19 21 23 24 25 25 24 24 24 24 26 26 25 24 23
32 25 25 22 22 27 24 22 17 17 24 25 19 12 13 12 12 11 10 10 10 11 12 14 17 20 22 24 26 28 29 29 29 28 29 29 29 29 29 27 25 27 28 28
26 22 25 25 25 21 24 34 36 31 26 21 16 14 13 11 10 10 11 11 12 14 18 22 26 30 32 30 29 30 30 31 34 35 34 33 32 28 26 30 35 35 32 28
25 30 29 23 23 33 53 53 39 29 20 15 13 12 12 12 13 13 14 16 19 21 22 24 27 26 26 28 33 38 39 38 38 35 31 29 31 37 38 36 31 27 23 18
25 29 37 35 39 52 53 43 23 15 13 13 13 12 14 15 18 21 23 26 26 26 26 26 28 30 33 36 39 40 40 36 32 33 39 42 40 35 31 28 22 15 11 9
37 39 32 38 34 28 20 16 15 13 12 12 14 15 18 22 25 28 29 29 30 31 32 34 38 42 44 44 40 37 36 40 44 44 40 38 34 26 16 12 9 9 10 11
34 27 25 20 17 16 15 15 16 16 16 16 20 23 27 30 30 32 32 33 35 38 41 44 44 41 39 40 42 44 45 44 44 42 32 20 13 10 9 11 12 14 15 14
21 18 17 16 16 18 19 20 21 24 23 25 28 31 34 34 35 35 37 39 38 37 38 40 42 44 44 45 47 48 47 38 22 14 11 10 12 12 12 15 17 21 22 23
19 20 21 20 21 22 24 27 29 31 32 34 33 35 37 37 37 36 37 39 44 47 48 48 49 51 52 49 36 20 12 11 10 10 14 16 15 17 27 31 28 17 10 8
25 23 21 20 19 20 21 26 31 35 37 38 37 35 38 41 46 49 52 54 55 56 56 55 47 31 18 12 10 10 10 12 15 17 18 32 41 37 20 10 9 8 8 8
21 21 23 26 30 36 38 41 41 40 38 37 40 48 56 56 56 56 56 55 52 46 33 20 11 9 10 12 16 19 23 30 41 48 45 31 14 10 11 12 11 9 8 8
33 37 39 41 41 40 39 39 39 40 47 52 58 61 59 57 55 50 44 35 25 13 10 12 26 40 46 48 50 51 51 45 31 18 13 12 12 13 12 11 11 10 9 9
47 45 43 41 40 39 42 52 57 56 55 52 55 55 52 44 37 27 16 10 10 18 36 45 47 48 47 44 34 23 19 18 17 14 13 14 13 15 15 14 11 10 10 8
41 39 42 51 57 57 55 55 52 54 54 48 43 37 26 14 10 10 12 27 38 40 43 44 47 46 33 23 22 22 20 18 16 16 16 16 21 20 15 12 12 10 8 10
61 59 54 49 50 50 50 53 47 41 37 31 19 11 9 11 20 27 31 34 38 39 40 44 40 28 25 24 22 22 21 20 19 19 21 24 22 18 13 12 11 10 12 28
50 50 49 49 47 41 40 38 34 24 12 9 10 12 17 22 25 29 35 35 37 48 39 30 27 27 27 26 25 25 24 23 23 26 26 22 19 15 12 13 14 16 26 37
51 46 46 45 45 40 23 15 15 15 15 16 18 20 22 24 28 32 42 55 57 40 32 29 29 31 30 28 28 29 29 29 27 24 20 16 13 13 17 19 21 26 38 42
58 57 51 42 30 26 21 19 18 19 17 21 27 35 42 48 51 54 42 34 35 35 34 34 34 32 31 32 32 29 26 24 19 16 13 13 18 24 27 28 45 49 47 23
43 34 26 25 22 17 16 11 8 11 11 10 13 19 28 29 27 32 36 39 38 37 35 36 36 34 33 31 27 24 18 13 12 14 15 20 34 37 42 53 49 31 22 60
27 25 20 14 7 8 7 7 8 9 9 11 13 20 29 31 34 40 46 45 42 42 39 38 35 32 26 20 17 15 13 14 14 14 24 40 65 75 57 42 26 23 75 99
21 10 6 6 7 6 7 10 12 13 16 19 23 31 41 43 49 54 51 47 46 41 38 32 26 24 22 17 15 16 16 14 15 33 54 85 74 59 33 26 29 94 99 92
5 5 5 6 8 10 12 13 17 22 26 28 34 40 47 54 56 52 47 45 42 28 20 22 23 20 18 18 19 16 16 17 40 64 85 78 48 33 30 36 96 94 89 88
8 6 6 8 12 13 15 20 26 28 30 37 45 51 54 52 49 48 48 37 22 21 26 25 21 21 21 18 22 26 29 53 72 85 77 44 37 33 41 98 98 95 89 91
8 9 10 14 17 16 18 25 31 30 34 40 44 45 46 49 51 46 29 20 22 28 24 24 25 19 18 27 36 42 89 99 92 79 52 44 35 40 97 100 100 100 95 99
Wind_Speed
36 36 34 30 28 26 26 26 21 24 28 26 24 16 21 27 24 27 28 28 29 31 32 35 36 36 37 36 36 36 37 37 37 38 39 39 41 42 43 44 45 46 47 49
35 33 31 30 28 26 25 24 25 28 27 27 24 17 21 25 28 28 29 29 30 31 32 35 35 36 36 36 35 35 36 37 38 39 41 42 44 45 47 47 48 50 51 53
33 32 30 28 29 28 26 28 29 30 27 28 25 19 18 25 28 29 30 32 32 32 32 34 33 33 34 34 35 35 36 37 39 40 42 44 47 49 50 50 52 54 55 57
33 32 31 30 29 29 27 26 27 27 27 27 25 26 19 26 29 30 31 32 32 32 31 31 32 33 33 34 35 37 39 41 43 44 46 47 50 52 54 55 55 57 59 61
29 27 26 25 26 26 23 22 22 23 24 25 22 28 24 26 28 30 31 30 30 30 30 29 30 31 33 36 39 41 42 44 45 47 50 52 54 55 56 58 59 61 62 64
29 27 24 23 23 22 21 21 22 24 25 27 24 26 29 28 27 27 28 28 28 29 30 31 32 35 37 38 40 41 44 47 49 51 53 55 57 59 61 62 63 64 65 65
24 22 22 22 21 21 22 22 24 26 25 26 27 27 27 27 27 27 28 28 28 30 31 32 33 35 38 40 42 46 49 51 53 55 57 59 61 62 64 64 65 65 65 66
20 19 18 17 19 20 20 21 23 28 27 27 27 28 27 27 26 26 27 29 30 30 31 34 36 38 40 44 47 50 52 54 57 58 60 61 62 63 63 63 64 66 67 68
14 14 14 16 18 19 20 23 24 27 28 28 27 26 27 27 27 28 29 30 32 33 35 37 39 41 45 48 51 53 56 57 59 60 61 60 61 62 63 64 67 69 71 73
13 14 15 16 19 20 22 23 24 25 29 28 28 28 28 28 29 31 32 32 34 36 38 41 44 47 50 52 54 56 57 58 58 58 59 60 61 64 66 68 71 73 74 76
14 14 15 17 19 20 21 22 24 26 27 29 29 29 28 30 31 33 34 36 38 41 44 46 48 51 53 54 55 54 54 55 56 58 59 62 65 67 69 70 71 72 72 74
14 14 16 18 19 20 22 22 24 26 27 28 30 30 30 31 34 36 39 41 43 46 48 50 51 52 51 50 50 51 53 55 57 61 63 64 65 65 66 67 69 72 74 77
14 15 16 17 18 19 21 22 24 25 26 26 30 31 34 37 40 42 44 46 47 48 49 48 47 47 47 49 51 53 55 58 60 61 62 62 64 64 67 69 70 72 75 78
14 15 16 17 18 19 20 21 23 26 28 31 32 36 39 43 44 45 46 47 46 45 44 44 44 46 49 52 54 56 58 58 58 59 61 63 65 67 67 70 72 75 77 79
13 14 16 17 18 20 22 24 27 30 33 36 37 39 41 43 44 44 44 43 42 42 42 45 49 52 54 53 52 51 54 57 59 60 63 65 66 68 70 73 75 77 78 74
14 15 18 19 22 25 26 29 32 35 37 39 40 40 40 39 39 39 40 40 42 45 49 52 54 52 48 48 52 55 58 60 62 64 67 69 71 73 73 75 77 76 70 64
18 20 23 23 26 29 31 32 35 36 36 37 37 37 37 37 37 39 42 45 48 51 55 50 45 46 50 53 57 59 61 63 66 68 71 74 76 75 76 77 74 66 61 56
21 24 27 28 30 31 32 32 33 34 34 33 35 35 36 39 43 45 47 50 53 51 45 46 49 52 56 58 60 62 64 66 69 72 75 77 77 78 76 70 61 58 53 53
25 26 26 26 27 28 29 29 31 33 31 33 35 39 42 44 47 49 51 52 48 47 51 53 55 58 60 62 64 65 66 69 72 75 76 78 78 73 64 56 54 51 49 48
21 23 24 25 26 27 27 28 30 33 34 37 40 42 44 45 46 48 46 47 50 53 56 57 59 61 62 63 64 67 70 72 74 77 75 70 62 55 51 47 45 45 44 46
20 19 20 22 23 24 25 28 29 33 36 38 39 42 42 44 45 47 51 54 56 57 57 60 61 62 63 65 68 71 72 74 71 61 56 52 48 45 41 42 42 43 44 38
16 17 18 17 19 21 23 28 33 38 42 44 45 45 45 45 48 52 56 57 58 59 59 60 63 65 67 69 70 71 69 56 51 49 45 40 39 39 40 40 42 41 35 31
14 14 15 18 21 26 30 34 39 42 45 47 49 49 47 49 53 57 58 57 58 58 60 63 65 67 68 70 70 58 51 47 45 37 35 36 36 38 41 42 37 32 29 28
12 16 18 21 25 30 34 38 41 44 47 49 48 49 51 55 57 57 57 56 59 61 63 66 68 67 64 59 54 51 46 42 34 31 34 34 35 39 41 36 32 29 28 27
18 20 22 26 30 36 39 43 45 48 50 50 49 51 53 55 55 56 56 58 60 64 66 67 64 58 53 50 48 44 39 31 29 31 31 33 38 40 32 29 27 28 28 27
22 25 28 32 36 40 44 47 48 50 51 51 51 53 54 55 55 56 57 61 64 66 65 57 51 49 48 45 41 35 30 29 28 29 31 36 39 32 28 23 23 28 27 27
Wind_Direction
210 212 221 226 234 237 247 246 245 262 269 272 273 270 271 274 273 272 275 280 285 286 290 288 288 289 289 289 288 289 289 288 288 289 289 289 289 289 288 287 287 287 287 287
210 213 216 225 230 230 241 251 258 259 272 276 275 273 267 273 275 277 281 283 283 285 285 286 289 288 289 288 288 287 287 289 289 289 289 288 288 288 288 289 289 290 290 290
210 210 213 217 227 241 246 251 261 267 270 273 274 271 269 270 275 279 283 284 286 286 286 286 287 287 286 286 286 288 289 289 288 288 287 288 289 290 291 292 290 290 289 288
211 213 218 225 236 244 248 254 259 264 267 271 274 274 271 273 278 281 283 286 287 287 286 285 285 285 287 290 291 291 291 290 290 290 289 290 291 290 290 289 290 290 289 289
213 215 221 227 236 244 249 252 258 264 268 270 278 281 285 280 282 284 286 286 285 284 285 285 284 286 287 288 289 290 290 289 289 289 290 290 290 290 290 290 290 290 290 289
210 212 218 226 233 240 246 254 260 265 270 275 282 284 289 291 289 286 285 284 283 283 283 284 287 289 290 290 288 287 286 287 289 290 290 290 290 291 292 292 292 291 291 290
213 216 223 230 237 245 252 259 267 268 272 281 285 286 287 289 288 288 288 288 288 288 288 289 289 287 286 285 286 287 289 290 290 291 292 292 292 292 293 292 292 291 291 290
215 222 229 237 244 252 258 265 272 278 283 284 286 286 289 290 291 292 292 292 291 290 290 289 289 288 288 288 289 290 291 292 293 293 293 293 293 293 293 292 293 293 293 293
217 221 230 239 248 257 264 270 274 278 281 284 286 289 291 293 295 293 292 292 292 292 291 290 289 288 288 289 291 293 293 293 294 294 294 295 294 294 295 296 296 296 296 297
221 230 239 248 255 262 267 273 276 279 283 286 290 292 293 294 293 292 292 293 293 292 291 291 291 292 293 293 292 293 294 295 296 296 296 296 296 297 298 298 298 299 300 300
237 243 249 257 262 267 272 277 278 281 285 288 291 291 296 294 293 292 293 292 292 292 292 292 293 293 293 293 294 296 297 298 297 297 298 298 298 299 301 301 300 301 302 302
251 257 262 266 270 273 275 277 279 281 285 288 292 293 296 293 292 292 292 293 293 292 293 293 293 293 295 297 298 298 298 298 298 296 297 299 300 300 301 302 303 303 303 303
257 261 263 266 271 274 276 278 280 284 287 291 289 295 292 290 291 292 293 293 293 294 294 295 297 298 298 299 299 299 298 297 298 300 300 300 301 302 303 304 304 305 305 304
258 262 265 269 273 275 278 281 284 287 289 288 293 291 294 295 296 296 295 295 296 297 299 300 301 302 301 300 299 300 301 302 301 301 302 302 302 303 304 305 305 305 304 304
260 265 269 273 276 279 283 287 288 289 291 292 294 295 293 295 295 295 295 296 297 299 299 300 302 302 303 303 304 303 303 304 302 300 300 301 301 302 303 304 304 305 304 304
267 270 275 281 284 285 289 292 293 294 295 297 297 297 296 293 292 293 296 299 298 299 301 303 304 304 303 303 303 304 304 302 300 300 301 301 301 301 301 303 304 304 303 303
277 280 283 286 290 293 296 294 295 297 298 299 297 295 295 295 297 298 298 298 300 302 304 304 302 302 302 303 303 303 302 300 300 300 300 300 300 301 302 303 304 303 303 303
290 292 293 295 296 297 301 302 303 303 303 303 300 301 300 300 300 301 302 303 304 303 301 302 302 302 302 302 301 300 299 299 300 300 301 301 301 302 302 303 302 302 302 300
289 292 298 302 303 307 310 310 310 310 309 306 305 303 303 304 304 303 302 302 301 300 301 302 301 301 302 302 302 301 302 302 303 304 303 303 302 302 303 303 303 303 303 303
295 301 304 306 309 311 311 311 314 315 311 310 309 308 305 303 303 303 303 302 302 301 301 302 303 303 303 303 303 304 305 307 306 305 304 303 304 304 304 305 305 307 307 309
303 305 305 308 314 319 321 323 324 320 317 314 313 309 307 305 304 302 303 305 305 304 304 305 305 305 305 306 307 308 308 307 307 308 308 308 308 309 308 308 309 310 311 308
300 305 307 318 324 325 326 328 325 320 318 317 314 309 304 302 302 304 305 306 306 307 308 308 308 307 308 309 309 309 309 310 310 311 313 314 312 312 312 313 315 314 310 309
301 301 312 320 324 323 326 324 320 318 318 316 312 309 305 305 305 306 306 307 308 308 309 309 309 310 311 312 311 311 311 314 313 315 315 314 315 316 317 318 315 314 314 314
300 305 315 318 322 324 322 319 319 318 317 313 311 310 307 307 307 308 310 310 310 311 310 310 310 311 312 313 314 314 315 314 316 316 318 318 320 321 320 318 318 319 318 315
298 305 309 320 322 318 318 317 314 314 313 313 312 310 309 309 310 311 311 311 310 311 311 311 313 313 314 316 317 316 318 320 318 320 322 323 324 323 320 320 318 318 317 320
297 308 315 319 316 316 314 311 310 311 312 314 313 312 311 310 311 312 311 312 311 311 313 314 314 317 318 320 321 323 322 320 322 324 326 327 327 324 323 321 321 320 320 327